sat.trackr.live / text

‹ back to catalog

STARLINK-31126

NORAD 58675 · 2023-211J

PAYLOAD ACTIVE UNKNOWN

§ Identity

Operator
Country
US
Launch date
2023-12-29
Launch site
AFETR
Launch vehicle
Mass (kg)
RCS (m²)

Purposes: comms

External: N2YO · Heavens-Above · Gunter

§ Orbital elements

Epoch: 2026-05-25T00:29:09.459168Z

Period
94.27 min
Inclination
43.0040°
Eccentricity
0.0000880
Mean motion
15.27584797 rev/d
Perigee alt
482.4 km
Apogee alt
483.6 km
Semi-major
6,861.2 km
B*
4.1454e-5
RAAN
13.7453°
Arg perigee
281.9966°
Mean anomaly
78.0787°
Rev number
13,414

§ Raw data

STARLINK-311261 58675U 23211J   26145.02024837  .00000879  00000+0  41454-4 0  99992 58675  43.0040  13.7453 0000880 281.9966  78.0787 15.27584797134149

JSON: /api/v1/satellites/58675 · /tle

For live sub-satellite position, see the globe view (requires WebGL).

§ Visibility from observer

Set your observer location to see the next 7 days of passes ≥ 10°. The values pass through the URL so the page stays shareable.

No JS? Fill the form by hand. The geolocation button needs JavaScript.